Weather History for Troy, MI

Change the Weather History Date:

Monday, November 26, 2012

  Actual Average (KDET) Record (KDET)
Temperature  
Mean Temperature 36 °F -  
Max Temperature 37 °F 45 °F 60 °F (1960)
Min Temperature 34 °F 34 °F 10 °F (1949)
Degree Days  
Heating Degree Days 30    
Moisture  
Dew Point 22 °F    
Average Humidity 58    
Maximum Humidity 69    
Minimum Humidity 48    
Precipitation  
Precipitation 0.00 in - - ()
Sea Level Pressure  
Sea Level Pressure 30.17 in    
Wind  
Wind Speed 5 mph (WNW)    
Max Wind Speed 9 mph    
Max Gust Speed -    
Visibility 10 miles    
Events      
Averages and records for this station are not official NWS values.
T = Trace of Precipitation, MM = Missing Value Source: NWS Daily Summary

Daily Weather History Graph

Daily Weather History Graph

Search for Another Location

Airport:

Trip Planner

Search our weather history database for the weather conditions in past years. The results will help you decide how hot, cold, wet, or windy it might be!

Date:

Astronomy

Nov. 26, 2012 Rise Set
Actual Time 7:37 AM EST 5:02 PM EST
Civil Twilight 7:06 AM EST 5:33 PM EST
Nautical Twilight 6:31 AM EST 6:08 PM EST
Astronomical Twilight 5:58 AM EST 6:42 PM EST
Moon 3:55 PM EST (11/26) 5:45 AM EST (11/26)
Length of Visible Light 10h 26m
Length of Day
9h 24m
Waxing Gibbous, 97% of the Moon is Illuminated
Nov 26
Waxing Gibbous
Nov 28
Full
Dec 6
Last Quarter
Dec 13
New
Dec 20
First Quarter

Hourly Weather History & Observations

Time (EST) Temp. Windchill Dew Point Humidity Pressure Visibility Wind Dir Wind Speed Gust Speed Precip Events Conditions
12:14 AM 37.4 °F 31.4 °F 25.0 °F 61% 30.02 in 10.0 mi West 8.1 mph - N/A   Overcast
12:35 AM 37.0 °F 31.6 °F 24.8 °F 61% 30.02 in 10.0 mi West 6.9 mph - N/A   Scattered Clouds
12:54 AM 36.5 °F 31.8 °F 24.8 °F 63% 30.02 in 10.0 mi West 5.8 mph - N/A   Clear
1:15 AM 36.1 °F 31.4 °F 24.8 °F 63% 30.03 in 10.0 mi West 5.8 mph - N/A   Clear
1:35 AM 35.6 °F 31.7 °F 24.8 °F 65% 30.03 in 10.0 mi West 4.6 mph - N/A   Clear
1:54 AM 35.6 °F 30.7 °F 25.3 °F 66% 30.03 in 10.0 mi West 5.8 mph - N/A   Clear
2:15 AM 35.2 °F 29.5 °F 25.3 °F 67% 30.05 in 10.0 mi WNW 6.9 mph - N/A   Clear
2:34 AM 35.2 °F 29.5 °F 25.3 °F 67% 30.05 in 10.0 mi NW 6.9 mph - N/A   Scattered Clouds
2:55 AM 35.1 °F 32.2 °F 24.8 °F 66% 30.05 in 10.0 mi WNW 3.5 mph - N/A   Scattered Clouds
3:14 AM 34.0 °F - 24.8 °F 69% 30.05 in 10.0 mi Calm Calm - N/A   Scattered Clouds
3:34 AM 34.7 °F 30.6 °F 25.3 °F 69% 30.06 in 10.0 mi WSW 4.6 mph - N/A   Mostly Cloudy
3:55 AM 34.7 °F 31.8 °F 25.3 °F 69% 30.06 in 10.0 mi WSW 3.5 mph - N/A   Overcast
4:14 AM 34.9 °F 32.0 °F 25.3 °F 68% 30.07 in 10.0 mi WSW 3.5 mph - N/A   Overcast
4:35 AM 35.1 °F 31.0 °F 25.2 °F 67% 30.06 in 10.0 mi SW 4.6 mph - N/A   Overcast
4:55 AM 35.6 °F 32.8 °F 25.5 °F 67% 30.07 in 10.0 mi WSW 3.5 mph - N/A   Overcast
5:14 AM 35.6 °F 32.8 °F 25.3 °F 66% 30.08 in 10.0 mi West 3.5 mph - N/A   Overcast
5:35 AM 35.4 °F 31.5 °F 25.5 °F 67% 30.09 in 10.0 mi SW 4.6 mph - N/A   Overcast
5:55 AM 35.6 °F 32.8 °F 25.7 °F 67% 30.10 in 10.0 mi West 3.5 mph - N/A   Overcast
6:14 AM 36.5 °F 31.0 °F 25.3 °F 64% 30.11 in 10.0 mi West 6.9 mph - N/A   Overcast
6:35 AM 36.1 °F 29.9 °F 25.0 °F 64% 30.11 in 10.0 mi WNW 8.1 mph - N/A   Overcast
6:54 AM 35.6 °F 31.7 °F 24.8 °F 65% 30.12 in 10.0 mi NW 4.6 mph - N/A   Overcast
7:15 AM 35.2 °F 31.2 °F 24.8 °F 66% 30.13 in 10.0 mi West 4.6 mph - N/A   Mostly Cloudy
7:35 AM 35.6 °F 32.8 °F 25.0 °F 65% 30.14 in 10.0 mi West 3.5 mph - N/A   Overcast
7:54 AM 35.8 °F - 25.3 °F 66% 30.15 in 10.0 mi Calm Calm - N/A   Overcast
8:15 AM 36.0 °F - 25.5 °F 66% 30.15 in 10.0 mi Calm Calm - N/A   Overcast
8:34 AM 36.3 °F 31.6 °F 25.3 °F 64% 30.15 in 10.0 mi WNW 5.8 mph - N/A   Overcast
8:54 AM 36.5 °F 32.7 °F 25.2 °F 64% 30.16 in 10.0 mi NW 4.6 mph - N/A   Overcast
9:15 AM 36.7 °F 32.9 °F 25.0 °F 63% 30.17 in 10.0 mi WNW 4.6 mph - N/A   Overcast
9:35 AM 36.7 °F 32.9 °F 24.4 °F 61% 30.17 in 10.0 mi WNW 4.6 mph - N/A   Overcast
9:54 AM 36.9 °F 33.1 °F 23.9 °F 59% 30.19 in 10.0 mi West 4.6 mph - N/A   Overcast
10:15 AM 36.7 °F 32.9 °F 23.9 °F 60% 30.19 in 10.0 mi WNW 4.6 mph - N/A   Overcast
10:34 AM 36.9 °F 33.1 °F 23.7 °F 59% 30.20 in 10.0 mi West 4.6 mph - N/A   Overcast
10:55 AM 37.4 °F 32.1 °F 23.9 °F 58% 30.20 in 10.0 mi West 6.9 mph - N/A   Overcast
11:15 AM 37.2 °F 33.6 °F 23.0 °F 56% 30.20 in 10.0 mi WNW 4.6 mph - N/A   Overcast
11:34 AM 37.4 °F 31.4 °F 23.0 °F 56% 30.20 in 10.0 mi West 8.1 mph - N/A   Overcast
11:55 AM 37.4 °F 32.8 °F 23.5 °F 57% 30.19 in 10.0 mi West 5.8 mph - N/A   Overcast
12:15 PM 37.6 °F 31.6 °F 22.6 °F 55% 30.19 in 10.0 mi West 8.1 mph - N/A   Overcast
12:34 PM 37.4 °F 32.1 °F 22.8 °F 56% 30.18 in 10.0 mi NW 6.9 mph - N/A   Overcast
12:55 PM 37.4 °F 34.9 °F 23.0 °F 56% 30.19 in 10.0 mi WNW 3.5 mph - N/A   Overcast
1:14 PM 37.6 °F 34.0 °F 22.5 °F 54% 30.18 in 10.0 mi WNW 4.6 mph - N/A   Overcast
1:34 PM 37.6 °F 32.3 °F 21.9 °F 53% 30.19 in 10.0 mi WNW 6.9 mph - N/A   Overcast
1:55 PM 37.0 °F 32.4 °F 21.6 °F 54% 30.19 in 10.0 mi WNW 5.8 mph - N/A   Overcast
2:14 PM 37.4 °F 32.1 °F 22.1 °F 54% 30.19 in 10.0 mi WNW 6.9 mph - N/A   Overcast
2:35 PM 37.6 °F 31.6 °F 21.4 °F 52% 30.19 in 10.0 mi NNW 8.1 mph - N/A   Overcast
2:54 PM 37.2 °F 31.9 °F 20.7 °F 51% 30.20 in 10.0 mi NW 6.9 mph - N/A   Overcast
3:15 PM 37.4 °F 30.8 °F 20.7 °F 51% 30.20 in 10.0 mi NW 9.2 mph - N/A   Overcast
3:35 PM 37.4 °F 31.4 °F 19.9 °F 49% 30.21 in 10.0 mi NW 8.1 mph - N/A   Overcast
3:54 PM 37.0 °F 30.4 °F 19.9 °F 50% 30.22 in 10.0 mi NW 9.2 mph - N/A   Overcast
4:15 PM 36.7 °F 30.5 °F 19.4 °F 50% 30.22 in 10.0 mi NW 8.1 mph - N/A   Overcast
4:34 PM 36.5 °F 31.0 °F 19.4 °F 50% 30.22 in 10.0 mi WNW 6.9 mph - N/A   Overcast
4:55 PM 36.1 °F 29.3 °F 19.2 °F 50% 30.23 in 10.0 mi NW 9.2 mph - N/A   Overcast
5:15 PM 36.1 °F 30.6 °F 19.4 °F 51% 30.23 in 10.0 mi WNW 6.9 mph - N/A   Overcast
5:34 PM 35.8 °F 28.8 °F 18.5 °F 50% 30.24 in 10.0 mi WNW 9.2 mph - N/A   Overcast
5:55 PM 35.8 °F 28.8 °F 18.5 °F 50% 30.24 in 10.0 mi NW 9.2 mph - N/A   Overcast
6:14 PM 35.2 °F 30.3 °F 17.6 °F 49% 30.25 in 10.0 mi NNW 5.8 mph - N/A   Overcast
6:35 PM 34.9 °F 28.3 °F 17.4 °F 49% 30.25 in 10.0 mi NW 8.1 mph - N/A   Overcast
6:54 PM 34.7 °F 28.8 °F 17.2 °F 49% 30.25 in 10.0 mi NNW 6.9 mph - N/A   Overcast
7:14 PM 34.7 °F 29.6 °F 17.1 °F 49% 30.25 in 10.0 mi NW 5.8 mph - N/A   Overcast
7:35 PM 34.7 °F 31.8 °F 16.7 °F 48% 30.25 in 10.0 mi NW 3.5 mph - N/A   Mostly Cloudy
7:54 PM 34.7 °F 31.8 °F 16.9 °F 48% 30.26 in 10.0 mi NW 3.5 mph - N/A   Overcast
8:15 PM 34.7 °F 30.6 °F 17.2 °F 49% 30.27 in 10.0 mi NW 4.6 mph - N/A   Overcast
8:34 PM 34.7 °F - 17.2 °F 49% 30.27 in 10.0 mi Calm Calm - N/A   Overcast
8:54 PM 34.7 °F 30.6 °F 17.2 °F 49% 30.27 in 10.0 mi NNW 4.6 mph - N/A   Overcast
9:14 PM 34.7 °F - 17.1 °F 49% 30.28 in 10.0 mi Calm Calm - N/A   Overcast
9:34 PM 34.7 °F - 17.2 °F 49% 30.28 in 10.0 mi Calm Calm - N/A   Overcast
9:54 PM 34.7 °F - 17.6 °F 50% 30.29 in 10.0 mi Calm Calm - N/A   Overcast
10:14 PM 34.9 °F - 17.8 °F 50% 30.29 in 10.0 mi Calm Calm - N/A   Overcast
10:35 PM 34.7 °F 29.6 °F 18.3 °F 51% 30.29 in 10.0 mi WNW 5.8 mph - N/A   Overcast
10:54 PM 34.7 °F 30.6 °F 18.7 °F 52% 30.29 in 10.0 mi WNW 4.6 mph - N/A   Overcast
11:14 PM 34.7 °F 28.8 °F 19.0 °F 53% 30.29 in 10.0 mi NW 6.9 mph - N/A   Overcast
11:35 PM 34.3 °F 29.2 °F 19.4 °F 54% 30.30 in 10.0 mi NW 5.8 mph - N/A   Overcast
11:54 PM 34.2 °F 31.2 °F 20.3 °F 57% 30.30 in 10.0 mi NW 3.5 mph - N/A   Overcast